Weather Service Report


888 
ASUS45 KABQ 171510
RWRNM 
NEW MEXICO REGIONAL WEATHER ROUNDUP
NATIONAL WEATHER SERVICE ALBUQUERQUE NM
800 AM MST TUE JAN 17 2017

NOTE: "FAIR" MEANS FEW OR NO CLOUDS BELOW 12,000 FEET AGL WITH NO
       SIGNIFICANT WEATHER OR OBSTRUCTIONS TO VISION.

      THIS PRODUCT IS RELEASED AS TWO VERSIONS.  ONE VERSION NEAR
      THE TOP OF THE HOUR CONTAINING PRELIMINARY DATA FROM ALBUQUERQUE
      AND OTHER STATIONS.  A FINAL VERSION WITH ADDITIONAL DATA IS 
      ISSUED ABOUT 10 MINUTES AFTER THE HOUR.
 
NMZ501-503-504-510>518-171600-
NORTHWEST PLATEAU/NORTHCENTRAL MOUNTAINS
  
CITY           SKY/WX    TMP DP  RH WIND       PRES   REMARKS
FARMINGTON     CLOUDY    33  33 100 CALM      30.13R FOG              
LOS ALAMOS     FAIR      30  30 100 S3        30.15S                  
SANTA FE       CLOUDY    33  29  85 CALM      30.15R                  
TAOS           CLOUDY    30  23  74 CALM      30.15R                  
ANGEL FIRE     MOCLDY    28  25  87 CALM      30.14R                  

$$
NMZ402-403-502-505>509-171600-
WESTCENTRAL MOUNTAINS/SOUTHWEST MOUNTAINS
  
CITY           SKY/WX    TMP DP  RH WIND       PRES   REMARKS
GALLUP         CLOUDY    31  30  96 NE6       30.13R WCI  25          
GRANTS         LGT SNOW  32  32 100 N6        30.15R WCI  26          
SILVER CITY    FAIR      29  28  94 N5        30.08R WCI  24          

$$
NMZ407-409-411-412-171600-
SOUTHERN DESERTS
  
CITY           SKY/WX    TMP DP  RH WIND       PRES   REMARKS
DEMING         FAIR      35  33  92 E7        30.08R WCI  29          
LAS CRUCES     FAIR      38  37  94 N7        30.09R WCI  33          
HOLLOMAN AFB   CLOUDY    35  35  99 CALM      30.14R                  
ALAMOGORDO     CLOUDY    36  36 100 NE5       30.12R WCI  32          
T OR C         CLOUDY    38  35  89 N10       30.10R WCI  31          

$$
NMZ519>523-171600-
CENTRAL VALLEYS/CENTRAL HIGHLANDS
  
CITY           SKY/WX    TMP DP  RH WIND       PRES   REMARKS
ALBUQUERQUE    MOCLDY    37  35  92 N8        30.15R WCI  31          
DOUBLE EAGLE   MOCLDY    34  34 100 N8        30.15R WCI  27          
MORIARTY ARPT  CLOUDY    32  31  94 CALM      30.17R                  
CLINES CORNERS CLOUDY    25  24  96 SW3       30.15R FOG              
BELEN          FAIR      37  37 100 N6        30.14S WCI  32          
SOCORRO        CLOUDY    40  36  85 NW7       30.14R WCI  35          

$$
NMZ524>526-539-540-171600-
SOUTHCENTRAL MOUNTAINS
  
CITY           SKY/WX    TMP DP  RH WIND       PRES   REMARKS
RUIDOSO        CLOUDY    32  32 100 SE9       30.17R WCI  24          

$$
NMZ527>531-171600-
NORTHEAST HIGHLANDS/NORTHEAST PLAINS
  
CITY           SKY/WX    TMP DP  RH WIND       PRES   REMARKS
LAS VEGAS      FOG       20  19  96 SW5       30.13R VSB 1/4 WCI  13  
RATON          CLOUDY    21  18  88 NE6       30.11R WCI  13          
CLAYTON        FAIR      29  26  89 W6        30.13R WCI  23          

$$
NMZ532>537-171600-
EASTCENTRAL PLAINS
  
CITY           SKY/WX    TMP DP  RH WIND       PRES   REMARKS
TUCUMCARI      FAIR      33  31  92 W6        30.16R WCI  28          
CANNON AFB     CLOUDY    31  31 100 CALM      30.19R                  
CLOVIS AIRPORT CLOUDY    28  27  93 CALM      30.19R                  

$$
NMZ028-029-538-171600-
SOUTHEAST PLAINS
  
CITY           SKY/WX    TMP DP  RH WIND       PRES   REMARKS
ROSWELL        CLOUDY    41  32  70 N5        30.19R                  
ARTESIA        CLOUDY    39  37  93 N6        30.20R WCI  35          
CARLSBAD       CLOUDY    39  37  92 N5        30.19R                  
HOBBS          PTSUNNY   32  32 100 N6        30.19R WCI  26          


$$
  

Return to Home page


Western Regional Climate Center, wrcc@dri.edu